Flag for U.S.A. Weather past 2 weeks in Bellingham, Washington, U.S.A.

Now
65 °F

Clear.


Feels Like: 65 °F
Forecast: 59 / 83 °F
Wind: No wind

Location: Bellingham International Airport

Current Time: Jul 4, 2015 at 12:50:45 AM

Latest Report: Jul 3, 2015 at 11:53 PM


Visibility: 10 mi

Pressure: 29.88 "Hg

Humidity: 61%

Dew point: 51 °F

Location of BellinghamLocation

Historic Weather in Bellingham — Graph

°F

Bellingham temperature yesterday

Maximum temperature yesterday: 81 °F (at 4:53 PM)
Minimum temperature yesterday: 63 °F (at 3:53 AM)
Average temperature yesterday: 72 °F

Past Weeks' High & Low Weather Summary

 TemperatureHumidityPressure
High85 °F (Jun 27, 2:53 PM)100% (Jun 18, 11:03 PM)30.17 "Hg (Jun 18, 11:03 PM)
Low49 °F (Jun 20, 4:53 AM)31% (Jun 25, 3:53 PM)29.86 "Hg (Jul 3, 8:53 PM)
Average68 °F66%30.04 "Hg
* Reported Jun 18 10:53 PM — Jul 3 10:53 PM, Bellingham, Weather by CustomWeather, © 2015

Note: Actual official high and low records may vary slightly from our data, if they occured in-between our weather recording intervals... More about our weather records

Advertising

Bellingham weather history for previous 24 hours

 ConditionsComfort  
Time TempWeatherWind HumidityBarometerVisibility
10:53 PM
Fri, Jul 3
65 °FClear.No wind68%29.88 "Hg10 mi
9:53 PM69 °FSunny.No wind63%29.88 "Hg10 mi
8:53 PM72 °FSunny.No wind61%29.86 "Hg10 mi
7:53 PM76 °FSunny.No wind50%29.86 "Hg10 mi
6:53 PM78 °FSunny.No wind43%29.87 "Hg10 mi
5:53 PM79 °FSunny.5 mph44%29.88 "Hg10 mi
4:53 PM81 °FSunny.7 mph42%29.89 "Hg10 mi
3:53 PM79 °FSunny.6 mph45%29.90 "Hg10 mi
2:53 PM79 °FSunny.3 mph45%29.93 "Hg10 mi
1:53 PM78 °FSunny.No wind48%29.94 "Hg10 mi
12:53 PM76 °FSunny.9 mph58%29.95 "Hg10 mi
11:53 AM73 °FSunny.8 mph62%29.97 "Hg10 mi
10:53 AM72 °FSunny.8 mph61%29.97 "Hg10 mi
9:53 AM72 °FSunny.6 mph61%29.98 "Hg10 mi
8:53 AM70 °FSunny.7 mph68%29.98 "Hg10 mi
7:53 AM68 °FSunny.3 mph73%29.98 "Hg10 mi
6:53 AM66 °FSunny.3 mph75%29.97 "Hg10 mi
5:53 AM63 °FClear.3 mph81%29.96 "Hg10 mi
4:53 AM65 °FClear.No wind76%29.96 "Hg10 mi
3:53 AM63 °FClear.3 mph78%29.96 "Hg10 mi
2:53 AM64 °FClear.No wind75%29.96 "Hg10 mi
1:53 AM71 °FClear.6 mph55%29.96 "Hg10 mi
12:53 AM73 °FClear.5 mph50%29.96 "Hg10 mi
Weather by CustomWeather, © 2015

See weather overviewHow to use our weather pages